Location: Maiden
(35.5760°N, 81.2120°W)
Time: 21:31:34
(UTC-04:00)

Vanguard 2 - Visible Passes

Search period start: 01 August 2021 00:00
Search period end: 11 August 2021 00:00
Orbit: 552 x 2937 km, 32.9° (Epoch: 01 August)

Date Brightness Start Highest point End Pass type
(mag) Time Alt. Az. Time Alt. Az. Time Alt. Az.
01 Aug 9.1 04:21:47 14° SE 04:21:47 14° SE 04:23:17 10° ESE visible
02 Aug 8.4 04:38:34 22° SSE 04:38:34 22° SSE 04:41:45 10° ESE visible
03 Aug 7.8 04:55:20 30° S 04:56:01 32° SSE 04:59:48 10° E visible
04 Aug 7.4 05:12:06 29° SW 05:13:37 42° SSE 05:17:43 10° E visible
05 Aug 7.1 05:28:52 21° WSW 05:31:16 53° S 05:35:32 10° E visible
06 Aug 9.5 03:44:14 12° ESE 03:44:14 12° ESE 03:44:33 10° ESE visible
06 Aug 7.0 05:45:38 14° WSW 05:48:56 60° S 05:53:20 10° E visible
07 Aug 8.9 04:01:00 20° ESE 04:01:00 20° ESE 04:02:27 10° E visible
07 Aug 7.1 06:02:44 10° W 06:06:37 61° S 06:11:07 10° E visible
08 Aug 8.0 04:17:47 33° ESE 04:17:47 33° ESE 04:20:15 10° E visible
09 Aug 7.2 04:34:35 53° SE 04:34:35 53° SE 04:38:00 10° E visible
10 Aug 6.8 04:51:23 56° SSW 04:51:49 61° S 04:55:43 10° E visible
